[[{"header":{"parameterUnit":"m.s-1","parameterCategory":2,"la1":30.2991,"la2":30.254,"lo1":-89.0895,"lo2":-89.0444,"dy":0.0017,"dx":0.0017,"nx":28,"ny":28,"refTime":"2024-07-29T03:00:00:Z","depth":"0","parameterNumber":2,"parameterNumberName":"U-component_of_CURRENTS"},"data":[0,0,0,0,0,0,0,0,0,0,0,0,0,0,0,0,0,0,0,0,0,0,0,0,0,0,0,0,0,0,0,0,0,0,0,0,0,0,0,0,0,0,0,0,0,0,0,0,0,0,0,0,0,0,0,0,0,0,0.2154,0.2154,0,0.2166,0.2166,0.2166,0.2162,0.2162,0.2162,0.2162,0.2132,0.2131,0.213,0,0,0,0,0,0,0,0,0,0,0,0,0,0.2115,0.2115,0.2154,0.2155,0.2155,0.2166,0.2166,0.2166,0.2162,0.2162,0.2162,0.2162,0.2132,0.2131,0.213,0,0,0,0,0,0,0,0,0,0,0,0,0,0.2127,0.2116,0.2154,0.2157,0.2157,0.2166,0.2166,0.2166,0.2162,0.2162,0.2162,0.2162,0.2132,0.2131,0.213,0.212,0,0,0.2126,0.2125,0,0,0,0,0,0,0,0,0.2126,0.2128,0.2156,0.2157,0.2157,0.2165,0.2141,0.215,0.2162,0.2157,0.2162,0.2162,0.2141,0.2139,0.2137,0.2119,0.2118,0.2126,0.2125,0.2124,0.2124,0,0,0,0,0,0,0,0.2125,0.2127,0.2155,0.2157,0.2157,0.2153,0.2155,0.2142,0.2145,0.2157,0.2158,0.2164,0.2141,0.2138,0.2136,0.2117,0.2126,0.2125,0.2124,0.2123,0.2122,0.2123,0,0,0,0,0,0,0.2131,0.2127,0.2155,0.2156,0.2145,0.2154,0.2156,0.216,0.2146,0.2145,0.2164,0.2164,0.2141,0.2138,0.2135,0.2153,0.2124,0.2123,0.2122,0.2122,0.2123,0.2123,0,0,0,0,0,0,0.213,0.2133,0.2155,0.2144,0.2147,0.2155,0.216,0.216,0.216,0.2153,0.215,0.2164,0.214,0.2137,0.2137,0.215,0.2123,0.2121,0.2121,0.2122,0.2123,0.2169,0,0,0,0,0,0,0.2129,0.2133,0.2137,0.2145,0.2148,0.2161,0.216,0.2161,0.2166,0.2165,0.2152,0.2149,0.214,0.2139,0.2136,0.2148,0.212,0.212,0.2121,0.2123,0.2166,0.2171,0.2176,0,0,0,0,0,0.2127,0.2133,0.2137,0.2141,0.2154,0.2162,0.2163,0.2166,0.2166,0.2166,0.2165,0.2149,0.2146,0.2139,0.2134,0.2147,0.2119,0.2121,0.2122,0.2164,0.217,0.2176,0,0,0,0,0,0,0.211,0.2134,0.2138,0.2148,0.2156,0.2163,0.2168,0.2167,0.2166,0.2166,0.2156,0.2153,0.2158,0.2146,0.2139,0.2152,0.2131,0.2131,0.2164,0.2169,0.2174,0.2168,0.2119,0,0,0,0,0,0.2111,0.2125,0.214,0.2147,0.2155,0.216,0.2164,0.2165,0.2168,0.2167,0.216,0.2157,0.2162,0.216,0.2155,0.2159,0.2195,0.2165,0.217,0.2174,0.2167,0.2221,0.2231,0.2129,0.2129,0.2129,0,0,0.2102,0.2121,0.2125,0.2145,0.2153,0.2162,0.2162,0.2168,0.2173,0.2163,0.2166,0.2168,0.2166,0.2176,0.2177,0.2168,0.2237,0.2176,0.2179,0.217,0.2224,0.2234,0.2243,0.213,0.213,0.213,0,0,0.2095,0.2113,0.2123,0.2137,0.2156,0.2161,0.2164,0.2171,0.2175,0.2178,0.2181,0.2196,0.2186,0.22,0.2204,0.2229,0.2257,0.2226,0.2245,0.2299,0.2308,0.2316,0.2444,0.2463,0.223,0.2231,0.2231,0,0.208,0.2099,0.2123,0.2141,0.215,0.2162,0.2166,0.2176,0.2179,0.2189,0.2182,0.2204,0.2201,0.2233,0.2244,0.224,0.2297,0.2226,0.2307,0.2315,0.2323,0.2451,0.2471,0.2233,0.2233,0.2232,0.2232,0,0.2084,0.2099,0.2108,0.2135,0.2148,0.2153,0.2175,0.2186,0.2191,0.22,0.2226,0.2235,0.2252,0.2259,0.2256,0.2309,0.2347,0.2308,0.2295,0.2336,0.2469,0.249,0.2236,0.2236,0.2235,0.2234,0,0,0.2051,0.2096,0.2099,0.2112,0.2144,0.2153,0.2176,0.2198,0.2224,0.223,0.2271,0.2279,0.2292,0.2298,0.2309,0.2349,0.2476,0.235,0.2352,0.2484,0.2661,0.2834,0.2874,0.245,0.2452,0.2453,0.2759,0,0.2041,0.2062,0.2089,0.2105,0.212,0.2149,0.2173,0.22,0.2229,0.2276,0.2301,0.2339,0.2307,0.2336,0.2368,0.2435,0.252,0.2401,0.2595,0.2602,0.2754,0.2898,0.2884,0.3166,0.2779,0.2782,0.2785,0,0.2051,0.2059,0.2068,0.2105,0.2113,0.2124,0.2176,0.2199,0.2273,0.2303,0.2348,0.238,0.2452,0.2418,0.2565,0.2491,0.2584,0.264,0.2652,0.2801,0.2811,0.3048,0.3218,0.3053,0.2816,0.2814,0.2811,0,0.2042,0.2058,0.2059,0.207,0.2106,0.2119,0.214,0.2204,0.2261,0.2337,0.2417,0.2461,0.2562,0.2608,0.2755,0.2655,0.2963,0.2838,0.3099,0.3114,0.3135,0.3149,0.3165,0.297,0.2969,0.2969,0.2968,0,0.2052,0.2063,0.2051,0.2062,0.2087,0.2104,0.2158,0.2203,0.2294,0.2419,0.2436,0.2584,0.2614,0.2798,0.2835,0.31,0.3047,0.3158,0.3211,0.3161,0.3174,0.3054,0.2941,0.298,0.2978,0.2975,0.2973,0,0.2115,0.2074,0.2107,0.2107,0.2099,0.2139,0.2204,0.2281,0.2335,0.2516,0.2562,0.2735,0.298,0.3087,0.3264,0.3293,0.3389,0.3568,0.3564,0.3611,0.3611,0.3504,0.3526,0.3421,0.3845,0.3851,0.3857,0,0.2194,0.2202,0.2178,0.2198,0.221,0.2238,0.2295,0.2318,0.2425,0.2646,0.2779,0.3052,0.3263,0.3621,0.376,0.3947,0.3713,0.4042,0.3817,0.3676,0.3592,0.3366,0.3253,0.3887,0.3892,0.3896,0.39,0,0.237,0.2331,0.2334,0.2344,0.2375,0.241,0.248,0.2548,0.2647,0.2773,0.3006,0.3163,0.3605,0.3813,0.4137,0.4219,0.3836,0.4136,0.3949,0.3627,0.3418,0.3322,0.3662,0.3937,0.3933,0.393,0.3928,0.3927,0.2517,0.2539,0.2486,0.2496,0.2531,0.2552,0.2554,0.2664,0.2756,0.2927,0.314,0.336,0.3736,0.4166,0.4276,0.4379,0.4175,0.4196,0.4093,0.3887,0.3721,0.4215,0.4561,0.4561,0.4561,0.4561,0.4561,0,0.2633,0.2585,0.2648,0.2574,0.2601,0.2584,0.2655,0.2648,0.2718,0.2974,0.3124,0.3533,0.3828,0.4102,0.4375,0.4289,0.404,0.4136,0.3711,0.3605,0.4038,0.3969,0.4252,0.4252,0.4252,0.4252,0.4253,0.4253,0.2651,0.2634,0.2605,0.2583,0.2571,0.2529,0.2528,0.2561,0.2678,0.2877,0.309,0.3328,0.3688,0.4022,0.4097,0.4051,0.3648,0.3604,0.3434,0.363,0.362,0.361,0.3514,0.3697,0.3696,0.2883,0.2877,0.2872]},{"header":{"parameterUnit":"m.s-1","parameterCategory":2,"la1":30.2991,"la2":30.254,"lo1":-89.0895,"lo2":-89.0444,"dy":0.0017,"dx":0.0017,"nx":28,"ny":28,"refTime":"2024-07-29T03:00:00:Z","depth":"0","parameterNumber":3,"parameterNumberName":"V-component_of_CURRENTS"},"data":[0,0,0,0,0,0,0,0,0,0,0,0,0,0,0,0,0,0,0,0,0,0,0,0,0,0,0,0,0,0,0,0,0,0,0,0,0,0,0,0,0,0,0,0,0,0,0,0,0,0,0,0,0,0,0,0,0,0,-0.137,-0.1372,0,-0.1456,-0.1457,-0.1458,-0.1501,-0.1501,-0.1501,-0.1501,-0.1505,-0.1505,-0.1505,0,0,0,0,0,0,0,0,0,0,0,0,0,-0.1263,-0.1264,-0.137,-0.1372,-0.1373,-0.1456,-0.1457,-0.1458,-0.1501,-0.1501,-0.1501,-0.1502,-0.1505,-0.1505,-0.1505,0,0,0,0,0,0,0,0,0,0,0,0,0,-0.1322,-0.1265,-0.137,-0.1406,-0.1411,-0.1456,-0.1457,-0.1458,-0.1501,-0.1501,-0.1501,-0.1502,-0.1505,-0.1505,-0.1505,-0.1494,0,0,-0.1504,-0.1504,0,0,0,0,0,0,0,0,-0.1319,-0.1326,-0.14,-0.1404,-0.1409,-0.1471,-0.1421,-0.1467,-0.15,-0.1463,-0.1501,-0.1502,-0.1488,-0.1489,-0.1501,-0.1495,-0.1495,-0.1504,-0.1504,-0.1503,-0.1503,0,0,0,0,0,0,0,-0.1315,-0.1323,-0.1401,-0.1401,-0.1407,-0.1426,-0.1434,-0.143,-0.1468,-0.1466,-0.1471,-0.1485,-0.1489,-0.1501,-0.1501,-0.1495,-0.1504,-0.1504,-0.1503,-0.1503,-0.1495,-0.1495,0,0,0,0,0,0,-0.1309,-0.1319,-0.1399,-0.1404,-0.1368,-0.1428,-0.1437,-0.1448,-0.147,-0.1475,-0.1484,-0.1487,-0.1501,-0.1501,-0.1501,-0.1484,-0.1503,-0.1503,-0.1503,-0.1495,-0.1495,-0.1495,0,0,0,0,0,0,-0.1306,-0.1315,-0.1395,-0.1366,-0.1378,-0.1429,-0.1441,-0.145,-0.1461,-0.1485,-0.1488,-0.1487,-0.1502,-0.1502,-0.15,-0.1485,-0.1503,-0.1503,-0.1495,-0.1495,-0.1495,-0.1453,0,0,0,0,0,0,-0.1303,-0.1313,-0.1314,-0.1365,-0.1379,-0.1412,-0.1442,-0.1451,-0.1471,-0.1474,-0.1488,-0.149,-0.1502,-0.1501,-0.15,-0.1485,-0.1503,-0.1495,-0.1495,-0.1495,-0.1455,-0.1452,-0.1449,0,0,0,0,0,-0.1298,-0.129,-0.1313,-0.1323,-0.138,-0.1412,-0.142,-0.1456,-0.147,-0.1468,-0.1486,-0.1489,-0.15,-0.15,-0.15,-0.1484,-0.1495,-0.1495,-0.1495,-0.1456,-0.1452,-0.1449,0,0,0,0,0,0,-0.1231,-0.1296,-0.1321,-0.1331,-0.1367,-0.142,-0.1422,-0.145,-0.1464,-0.1462,-0.1486,-0.1488,-0.1481,-0.149,-0.1491,-0.1484,-0.1498,-0.1498,-0.1469,-0.1466,-0.1463,-0.1424,-0.1502,0,0,0,0,0,-0.1221,-0.1237,-0.1298,-0.1302,-0.132,-0.137,-0.1387,-0.1412,-0.1438,-0.1446,-0.1461,-0.1474,-0.148,-0.148,-0.1485,-0.1476,-0.1459,-0.1468,-0.1465,-0.1463,-0.1432,-0.1421,-0.1414,-0.1494,-0.1494,-0.1494,0,0,-0.1192,-0.1233,-0.1239,-0.129,-0.132,-0.1332,-0.138,-0.1397,-0.1399,-0.144,-0.1436,-0.146,-0.1476,-0.1472,-0.1469,-0.1477,-0.1428,-0.1463,-0.146,-0.143,-0.142,-0.1412,-0.1405,-0.1494,-0.1494,-0.1494,0,0,-0.1144,-0.1182,-0.1181,-0.1213,-0.1263,-0.1295,-0.1298,-0.1349,-0.1362,-0.1371,-0.1401,-0.1414,-0.1426,-0.1437,-0.1443,-0.1425,-0.1414,-0.1434,-0.1384,-0.1375,-0.1368,-0.1361,-0.131,-0.1299,-0.1433,-0.1433,-0.1433,0,-0.1101,-0.1118,-0.1181,-0.1191,-0.1205,-0.1273,-0.1264,-0.129,-0.1331,-0.1324,-0.1359,-0.1373,-0.1405,-0.1383,-0.1395,-0.1415,-0.1395,-0.1396,-0.1369,-0.1362,-0.1356,-0.1306,-0.1294,-0.1431,-0.1431,-0.1432,-0.1432,0,-0.1063,-0.1074,-0.1073,-0.1111,-0.1132,-0.1134,-0.1187,-0.1195,-0.1225,-0.1248,-0.1241,-0.1291,-0.1288,-0.132,-0.1357,-0.1328,-0.1321,-0.1366,-0.1371,-0.1345,-0.1294,-0.1283,-0.1428,-0.1429,-0.143,-0.143,0,0,-0.0945,-0.103,-0.1022,-0.1022,-0.1089,-0.1087,-0.1096,-0.1105,-0.1065,-0.1131,-0.1075,-0.1149,-0.1171,-0.1179,-0.1227,-0.1243,-0.1205,-0.1286,-0.1287,-0.1222,-0.1145,-0.1055,-0.1035,-0.1249,-0.1248,-0.1246,-0.112,0,-0.0881,-0.0881,-0.0945,-0.0914,-0.0908,-0.0975,-0.096,-0.0977,-0.0992,-0.0955,-0.1019,-0.0984,-0.1117,-0.1093,-0.1141,-0.1179,-0.1176,-0.1232,-0.119,-0.1187,-0.1102,-0.1019,-0.096,-0.0835,-0.1109,-0.1107,-0.1106,0,-0.0794,-0.0814,-0.0784,-0.0799,-0.0798,-0.0783,-0.0747,-0.0745,-0.0738,-0.0741,-0.0753,-0.0787,-0.0811,-0.0919,-0.0979,-0.1009,-0.1062,-0.111,-0.1107,-0.1023,-0.1076,-0.0911,-0.0804,-0.1077,-0.1088,-0.109,-0.1091,0,-0.0641,-0.0675,-0.0642,-0.0653,-0.0691,-0.0661,-0.0663,-0.0658,-0.0594,-0.0572,-0.0489,-0.0578,-0.0526,-0.0666,-0.0787,-0.0874,-0.0821,-0.0951,-0.091,-0.0904,-0.0839,-0.0829,-0.0975,-0.0958,-0.0958,-0.0959,-0.0959,0,-0.052,-0.0478,-0.056,-0.0533,-0.0442,-0.0522,-0.0397,-0.0408,-0.0352,-0.0202,-0.0342,-0.0204,-0.0457,-0.0469,-0.0668,-0.0711,-0.0722,-0.0849,-0.0853,-0.0821,-0.0812,-0.1036,-0.1192,-0.0954,-0.0955,-0.0956,-0.0957,0,-0.0313,-0.0389,-0.0331,-0.0369,-0.0359,-0.0276,-0.0207,-0.01,-0.009,0.0115,0.0153,0.0131,0.0124,-0.0104,-0.0254,-0.046,-0.0667,-0.0588,-0.0507,-0.0504,-0.0773,-0.0925,-0.0935,-0.1015,-0.0542,-0.0539,-0.0536,0,-0.0202,-0.016,-0.0166,-0.0107,-0.0104,-0.0017,0.0076,0.0064,0.0198,0.036,0.0513,0.056,0.0638,0.0441,0.0116,-0.0147,-0.044,-0.0289,-0.0467,-0.0725,-0.0901,-0.0997,-0.1075,-0.0365,-0.0361,-0.0358,-0.0356,0,0.0036,0.003,0.007,0.0164,0.0259,0.0366,0.0489,0.0623,0.0681,0.0835,0.1057,0.1122,0.0999,0.0791,0.0443,0.0202,-0.044,-0.023,-0.0534,-0.0773,-0.0847,-0.0946,-0.0503,-0.0327,-0.033,-0.0332,-0.0334,-0.0335,0.0246,0.0322,0.0356,0.0455,0.0577,0.074,0.0844,0.0999,0.1209,0.1439,0.1485,0.162,0.1287,0.0834,0.0496,-0.0129,-0.0169,-0.04,-0.0555,-0.0623,-0.0728,-0.0182,-0.0003,-0.0003,-0.0004,-0.0005,-0.0006,0,0.0459,0.0507,0.0637,0.0742,0.0901,0.0894,0.1116,0.1217,0.1464,0.1727,0.1884,0.1845,0.1396,0.0846,0.0061,-0.042,-0.0639,-0.0717,-0.0925,-0.0988,-0.053,-0.0559,-0.0446,-0.0446,-0.0445,-0.0445,-0.0445,-0.0444,0.0568,0.0695,0.072,0.0982,0.1075,0.1256,0.1361,0.1539,0.1719,0.2015,0.2145,0.2213,0.1781,0.0363,-0.07,-0.0953,-0.1336,-0.1309,-0.1538,-0.1361,-0.1349,-0.1337,-0.1406,-0.1472,-0.1473,-0.1929,-0.1934,-0.1938]}],[{"header":{"parameterUnit":"m.s-1","parameterCategory":2,"la1":30.2991,"la2":30.254,"lo1":-89.0895,"lo2":-89.0444,"dy":0.0017,"dx":0.0017,"nx":28,"ny":28,"refTime":"2024-07-29T03:00:00:Z","depth":"2","parameterNumber":2,"parameterNumberName":"U-component_of_CURRENTS"},"data":[0,0,0,0,0,0,0,0,0,0,0,0,0,0,0,0,0,0,0,0,0,0,0,0,0,0,0,0,0,0,0,0,0,0,0,0,0,0,0,0,0,0,0,0,0,0,0,0,0,0,0,0,0,0,0,0,0,0,0.2067,0.2068,0,0.2182,0.2183,0.2184,0.2205,0.2205,0.2204,0.2203,0.2203,0.2204,0.2204,0,0,0,0,0,0,0,0,0,0,0,0,0,0.1918,0.192,0.2067,0.2068,0.207,0.2181,0.2183,0.2184,0.2205,0.2205,0.2204,0.2203,0.2203,0.2204,0.2204,0,0,0,0,0,0,0,0,0,0,0,0,0,0.2001,0.1921,0.2067,0.2096,0.21,0.2181,0.2183,0.2185,0.2206,0.2205,0.2203,0.2202,0.2203,0.2204,0.2204,0.2232,0,0,0.2208,0.2208,0,0,0,0,0,0,0,0,0.1996,0.2006,0.209,0.2094,0.2099,0.218,0.2131,0.2196,0.2206,0.2163,0.2203,0.2202,0.2187,0.2189,0.2212,0.2232,0.2232,0.2208,0.2208,0.2209,0.2209,0,0,0,0,0,0,0,0.199,0.2001,0.211,0.2092,0.2097,0.2121,0.2131,0.2144,0.2176,0.2167,0.2169,0.2186,0.2188,0.2211,0.2211,0.2232,0.2208,0.2209,0.2209,0.221,0.2271,0.2272,0,0,0,0,0,0,0.1979,0.1996,0.2106,0.2114,0.2046,0.2125,0.2136,0.2153,0.2178,0.2183,0.2187,0.2186,0.221,0.221,0.2211,0.2229,0.2209,0.221,0.221,0.227,0.2272,0.2273,0,0,0,0,0,0,0.1976,0.1988,0.2102,0.2059,0.2075,0.2128,0.2148,0.2156,0.2169,0.2195,0.2196,0.219,0.2209,0.221,0.2229,0.2229,0.221,0.2211,0.2269,0.2271,0.2272,0.2274,0,0,0,0,0,0,0.1971,0.1986,0.1988,0.2058,0.2077,0.2142,0.215,0.2159,0.2183,0.2183,0.2199,0.2199,0.2208,0.2228,0.223,0.223,0.2212,0.2268,0.227,0.2272,0.2273,0.2276,0.2278,0,0,0,0,0,0.1965,0.1975,0.1987,0.2,0.208,0.2142,0.2154,0.2187,0.2184,0.2193,0.2211,0.2198,0.2241,0.223,0.2232,0.2233,0.2267,0.2269,0.2272,0.2272,0.2275,0.2278,0,0,0,0,0,0,0.1908,0.1981,0.1995,0.2024,0.2074,0.2146,0.2159,0.2182,0.2207,0.2197,0.2215,0.2218,0.2238,0.2239,0.2226,0.2259,0.225,0.2253,0.2249,0.2253,0.2255,0.2239,0.2213,0,0,0,0,0,0.1898,0.1922,0.1995,0.2015,0.2039,0.2096,0.2121,0.2144,0.2183,0.2192,0.2203,0.222,0.2254,0.2254,0.2278,0.2291,0.233,0.2293,0.2296,0.2298,0.2289,0.2348,0.2355,0.2281,0.2281,0.228,0,0,0.1875,0.1923,0.1932,0.2004,0.2043,0.208,0.2107,0.2142,0.2166,0.2186,0.2201,0.2229,0.2263,0.2289,0.2295,0.2284,0.2352,0.2301,0.2302,0.2292,0.2351,0.2358,0.2365,0.2282,0.2282,0.2282,0,0,0.1857,0.1891,0.1908,0.1952,0.2014,0.2057,0.2063,0.2124,0.2141,0.2174,0.2201,0.2232,0.2261,0.2295,0.2317,0.2347,0.2372,0.2345,0.2333,0.2392,0.2398,0.2404,0.2514,0.253,0.2336,0.2336,0.2336,0,0.1825,0.1865,0.1921,0.1956,0.1984,0.2043,0.2063,0.2104,0.2157,0.217,0.2171,0.2248,0.227,0.2326,0.2337,0.2351,0.2402,0.2317,0.2394,0.24,0.2406,0.2518,0.2535,0.2337,0.2337,0.2337,0.2337,0,0.1831,0.1858,0.1874,0.1936,0.1971,0.2,0.2065,0.2086,0.211,0.2149,0.2197,0.2249,0.2286,0.2309,0.2332,0.2384,0.2417,0.2399,0.2382,0.2414,0.2531,0.2548,0.2337,0.2337,0.2337,0.2337,0,0,0.178,0.1858,0.1864,0.188,0.1959,0.1988,0.2027,0.2084,0.211,0.2154,0.2195,0.226,0.2276,0.2303,0.2339,0.239,0.2498,0.2401,0.2404,0.2506,0.2669,0.2742,0.2769,0.2484,0.2486,0.2488,0.2752,0,0.1766,0.1807,0.1856,0.1883,0.1907,0.1965,0.2001,0.2053,0.2106,0.2159,0.2222,0.2283,0.228,0.2311,0.2353,0.2472,0.2535,0.243,0.2627,0.2634,0.2689,0.2787,0.2375,0.2578,0.277,0.2773,0.2775,0,0.1769,0.1794,0.1813,0.1858,0.1872,0.1895,0.1955,0.1998,0.2093,0.2135,0.2192,0.2254,0.2354,0.234,0.2529,0.246,0.255,0.2637,0.2649,0.2718,0.2738,0.2568,0.2603,0.2805,0.2802,0.28,0.2798,0,0.1725,0.1768,0.1773,0.1791,0.1853,0.1861,0.1896,0.1979,0.205,0.2132,0.222,0.2289,0.2411,0.248,0.267,0.2592,0.291,0.2824,0.2983,0.2992,0.268,0.2659,0.2941,0.2941,0.2941,0.294,0.2939,0,0.172,0.1733,0.1745,0.1756,0.1783,0.1813,0.187,0.1924,0.2029,0.2168,0.2205,0.2368,0.2453,0.2651,0.2718,0.296,0.2955,0.3017,0.3065,0.268,0.2656,0.2857,0.2844,0.295,0.2948,0.2946,0.2944,0,0.1738,0.173,0.1757,0.1772,0.1778,0.1809,0.1906,0.1973,0.205,0.2247,0.2294,0.2491,0.2749,0.2881,0.3093,0.3104,0.3267,0.3346,0.2935,0.2929,0.3285,0.3269,0.3504,0.3508,0.3512,0.3516,0.3519,0,0.1763,0.1765,0.1788,0.1816,0.1838,0.1877,0.1938,0.1996,0.2109,0.237,0.2504,0.2777,0.2967,0.3307,0.3308,0.3436,0.352,0.3229,0.2985,0.332,0.3343,0.332,0.3299,0.2588,0.2583,0.2579,0.2576,0,0.1806,0.181,0.1833,0.1873,0.1918,0.1995,0.2083,0.2162,0.2299,0.2471,0.2738,0.2874,0.3138,0.3082,0.3263,0.3273,0.3146,0.316,0.3606,0.2536,0.2485,0.25,0.2502,0.2539,0.2543,0.2546,0.2548,0.2549,0.1826,0.186,0.1845,0.1906,0.1976,0.2047,0.2078,0.2223,0.236,0.2515,0.2761,0.2836,0.2859,0.2883,0.2898,0.2884,0.3075,0.2915,0.2913,0.2919,0.2793,0.2754,0.2838,0.2843,0.2847,0.2851,0.2854,0,0.1766,0.1791,0.1867,0.1879,0.1942,0.1992,0.2124,0.2132,0.2263,0.242,0.2552,0.235,0.2333,0.242,0.2265,0.2332,0.2145,0.2327,0.1988,0.2027,0.2061,0.1876,0.1686,0.1684,0.1681,0.1679,0,0,0.1688,0.1695,0.1736,0.176,0.1822,0.1845,0.1891,0.1962,0.203,0.2017,0.1996,0.2125,0.2251,0.1901,0.1883,0.1762,0.1873,0.17,0.2613,0.2242,0.2273,0.2367,0.2128,0,0,0,0,0]},{"header":{"parameterUnit":"m.s-1","parameterCategory":2,"la1":30.2991,"la2":30.254,"lo1":-89.0895,"lo2":-89.0444,"dy":0.0017,"dx":0.0017,"nx":28,"ny":28,"refTime":"2024-07-29T03:00:00:Z","depth":"2","parameterNumber":3,"parameterNumberName":"V-component_of_CURRENTS"},"data":[0,0,0,0,0,0,0,0,0,0,0,0,0,0,0,0,0,0,0,0,0,0,0,0,0,0,0,0,0,0,0,0,0,0,0,0,0,0,0,0,0,0,0,0,0,0,0,0,0,0,0,0,0,0,0,0,0,0,0.0546,0.0545,0,0.0466,0.0465,0.0464,0.0337,0.0335,0.0333,0.0331,0.018,0.0178,0.0176,0,0,0,0,0,0,0,0,0,0,0,0,0,0.0554,0.0554,0.0546,0.0545,0.0545,0.0467,0.0465,0.0464,0.0338,0.0335,0.0333,0.033,0.0181,0.0179,0.0176,0,0,0,0,0,0,0,0,0,0,0,0,0,0.0518,0.0555,0.0546,0.0474,0.0467,0.0467,0.0465,0.0464,0.0338,0.0335,0.0332,0.0329,0.0182,0.0179,0.0176,0.0219,0,0,0.0166,0.0165,0,0,0,0,0,0,0,0,0.052,0.0518,0.0485,0.0479,0.0471,0.0411,0.0413,0.0379,0.0339,0.0385,0.0331,0.0328,0.0255,0.0245,0.0235,0.0212,0.0205,0.0166,0.0164,0.0163,0.0162,0,0,0,0,0,0,0,0.0523,0.052,0.0512,0.0485,0.0476,0.0434,0.0425,0.0406,0.0335,0.038,0.0372,0.0368,0.0249,0.0238,0.023,0.0203,0.0166,0.0163,0.0161,0.016,0.0106,0.0106,0,0,0,0,0,0,0.0543,0.0523,0.0515,0.051,0.0491,0.0436,0.0427,0.0431,0.0336,0.032,0.037,0.0362,0.0245,0.0234,0.0224,0.0197,0.0163,0.016,0.0158,0.0106,0.0106,0.0107,0,0,0,0,0,0,0.0544,0.0544,0.0518,0.0516,0.0509,0.044,0.0446,0.0431,0.0394,0.033,0.0311,0.0345,0.0242,0.0229,0.0199,0.0193,0.0158,0.0155,0.0105,0.0106,0.0106,0.019,0,0,0,0,0,0,0.0545,0.0545,0.0545,0.0518,0.051,0.0517,0.0449,0.0432,0.0399,0.0386,0.0303,0.0287,0.0239,0.0204,0.0196,0.0188,0.0153,0.0105,0.0105,0.0106,0.0186,0.0193,0.0199,0,0,0,0,0,0.0545,0.0555,0.0546,0.0545,0.0518,0.0518,0.0511,0.0448,0.0401,0.0399,0.0341,0.0288,0.0202,0.0203,0.0193,0.0184,0.0104,0.0105,0.0106,0.0184,0.0192,0.0199,0,0,0,0,0,0,0.0547,0.0543,0.0532,0.0537,0.0532,0.0497,0.0485,0.0451,0.0405,0.038,0.031,0.0292,0.0257,0.022,0.0223,0.017,0.0138,0.0138,0.0201,0.0208,0.0214,0.0209,0.015,0,0,0,0,0,0.0558,0.0561,0.056,0.0559,0.0565,0.0528,0.0514,0.0481,0.0444,0.0417,0.0356,0.0296,0.0262,0.0234,0.0194,0.0184,0.0131,0.0165,0.0172,0.0177,0.0166,0.0107,0.0106,0.011,0.011,0.011,0,0,0.055,0.0553,0.0548,0.056,0.0547,0.056,0.051,0.0497,0.0489,0.0413,0.0366,0.0318,0.0264,0.0239,0.0219,0.0202,0.015,0.0178,0.0184,0.0169,0.0107,0.0107,0.0107,0.011,0.011,0.011,0,0,0.0545,0.0554,0.0557,0.0571,0.0571,0.0567,0.0567,0.0536,0.0504,0.0484,0.0416,0.0376,0.0314,0.0276,0.0252,0.0276,0.0187,0.0246,0.0271,0.0215,0.0214,0.0212,0.0154,0.0146,0.0247,0.0248,0.0248,0,0.0525,0.0547,0.0557,0.0577,0.0585,0.0575,0.0587,0.0578,0.0529,0.0505,0.0474,0.0374,0.0336,0.0304,0.0303,0.029,0.023,0.0251,0.0223,0.022,0.0217,0.0157,0.0148,0.0252,0.0251,0.0251,0.025,0,0.0534,0.0553,0.0562,0.059,0.0608,0.0618,0.063,0.0618,0.0583,0.0554,0.0502,0.0454,0.038,0.0374,0.0345,0.0301,0.0257,0.0241,0.0206,0.0222,0.0158,0.0146,0.0258,0.0256,0.0255,0.0254,0,0,0.0451,0.0548,0.0541,0.0567,0.0616,0.0624,0.0646,0.0649,0.0624,0.0589,0.0544,0.0506,0.0445,0.0414,0.0367,0.0331,0.0275,0.0271,0.0266,0.0216,0.0126,0.0093,0.0077,0.0238,0.0237,0.0235,0.0093,0,0.0437,0.0496,0.0542,0.0577,0.0611,0.0639,0.0654,0.0655,0.0635,0.0592,0.0558,0.0495,0.0472,0.0417,0.0383,0.0297,0.0246,0.0314,0.0114,0.0108,0.008,0.0063,0.0073,-0.0054,0.0082,0.008,0.0079,0,0.0406,0.0461,0.0509,0.058,0.0591,0.06,0.0612,0.0623,0.0603,0.0579,0.0531,0.0483,0.0428,0.0401,0.0271,0.0302,0.0208,0.0155,0.0148,0.0074,0.0053,-0.0051,-0.008,0.0059,0.006,0.0062,0.0063,0,0.0335,0.0418,0.0459,0.0486,0.0571,0.0564,0.0584,0.0587,0.0604,0.0542,0.0542,0.0452,0.0413,0.0296,0.0206,0.0204,0.0065,0.0049,-0.0066,-0.007,-0.0122,-0.0127,-0.0065,-0.0065,-0.0064,-0.0064,-0.0064,0,0.0299,0.0314,0.0419,0.0436,0.0461,0.0511,0.051,0.0515,0.0529,0.057,0.0505,0.0523,0.0381,0.0309,0.0191,0.0037,0.0043,-0.0079,-0.0114,-0.0091,-0.0091,-0.0041,-0.0036,-0.0069,-0.0068,-0.0067,-0.0066,0,0.0206,0.0278,0.0325,0.0409,0.0431,0.043,0.0508,0.053,0.0525,0.0579,0.0567,0.0551,0.0456,0.0327,0.0147,0.003,-0.0123,-0.0183,-0.0143,-0.0171,-0.0226,-0.0215,-0.0361,-0.0363,-0.0365,-0.0367,-0.0369,0,0.0172,0.0193,0.0297,0.034,0.037,0.0404,0.0462,0.0505,0.0566,0.0633,0.068,0.0604,0.0598,0.0322,0.0076,-0.0176,-0.0151,-0.0335,-0.0332,-0.0239,-0.0259,-0.0245,-0.0232,-0.0368,-0.037,-0.0371,-0.0372,0,0.0122,0.0149,0.0212,0.0311,0.0371,0.0464,0.0544,0.0603,0.0697,0.0766,0.0854,0.0838,0.0586,0.0333,-0.002,-0.0172,-0.0299,-0.0368,-0.0298,-0.0283,-0.0255,-0.0271,-0.0256,-0.0381,-0.038,-0.038,-0.0379,-0.0379,0.0093,0.0128,0.0232,0.0319,0.0405,0.0534,0.0629,0.0754,0.0882,0.1022,0.0985,0.0968,0.0647,0.0187,-0.0092,-0.0388,-0.0383,-0.0482,-0.0475,-0.0468,-0.0432,-0.0408,-0.0557,-0.0557,-0.0557,-0.0557,-0.0557,0,0.0129,0.0187,0.0257,0.0392,0.0508,0.0553,0.0729,0.0869,0.1068,0.111,0.1172,0.0867,0.0564,0.0236,-0.0244,-0.0535,-0.0523,-0.0581,-0.0512,-0.0502,-0.0493,-0.0455,-0.0588,-0.0589,-0.0589,-0.059,0,0,0.017,0.0259,0.031,0.0493,0.0586,0.0789,0.0915,0.1108,0.1193,0.1238,0.1182,0.1075,0.0629,0.0288,-0.0092,-0.0341,-0.0338,-0.0371,-0.0324,-0.019,-0.0176,-0.0428,-0.0357,0,0,0,0,0]}],[{"header":{"parameterUnit":"m.s-1","parameterCategory":2,"la1":30.2991,"la2":30.254,"lo1":-89.0895,"lo2":-89.0444,"dy":0.0017,"dx":0.0017,"nx":28,"ny":28,"refTime":"2024-07-29T03:00:00:Z","depth":"4","parameterNumber":2,"parameterNumberName":"U-component_of_CURRENTS"},"data":[0,0,0,0,0,0,0,0,0,0,0,0,0,0,0,0,0,0,0,0,0,0,0,0,0,0,0,0,0,0,0,0,0,0,0,0,0,0,0,0,0,0,0,0,0,0,0,0,0,0,0,0,0,0,0,0,0,0,0.0835,0.0835,0,0.0937,0.0939,0.094,0.1035,0.1035,0.1036,0.1036,0.1088,0.1089,0.109,0,0,0,0,0,0,0,0,0,0,0,0,0,0.0755,0.0756,0.0835,0.0835,0.0836,0.0937,0.0939,0.0941,0.1035,0.1035,0.1036,0.1036,0.1088,0.1089,0.109,0,0,0,0,0,0,0,0,0,0,0,0,0,0.0823,0.0757,0.0835,0.0889,0.0895,0.0936,0.0939,0.0942,0.1035,0.1035,0.1036,0.1037,0.1088,0.1089,0.109,0.1085,0,0,0.1095,0.1095,0,0,0,0,0,0,0,0,0.0819,0.0827,0.0881,0.0886,0.0892,0.0967,0.0929,0.0984,0.1034,0.099,0.1036,0.1037,0.1038,0.1043,0.1072,0.1088,0.109,0.1095,0.1096,0.1096,0.1097,0,0,0,0,0,0,0,0.0815,0.0824,0.0883,0.0881,0.0888,0.092,0.0931,0.0941,0.1013,0.0993,0.0999,0.0998,0.1042,0.1071,0.1074,0.1091,0.1095,0.1096,0.1097,0.1098,0.1158,0.1159,0,0,0,0,0,0,0.0785,0.0819,0.088,0.0885,0.0848,0.092,0.0933,0.0948,0.1015,0.1024,0.0997,0.1002,0.1068,0.1072,0.1076,0.1145,0.1096,0.1098,0.1099,0.1158,0.1158,0.1159,0,0,0,0,0,0,0.0783,0.079,0.0875,0.0847,0.086,0.092,0.0937,0.095,0.102,0.1016,0.1026,0.1057,0.1069,0.1074,0.1114,0.1145,0.1098,0.11,0.1157,0.1158,0.1159,0.1237,0,0,0,0,0,0,0.078,0.0789,0.0809,0.0846,0.086,0.0911,0.0936,0.0951,0.1012,0.1021,0.107,0.1074,0.107,0.1112,0.1116,0.1146,0.1101,0.1156,0.1157,0.1158,0.1233,0.124,0.1246,0,0,0,0,0,0.0778,0.0789,0.081,0.0818,0.088,0.0911,0.0923,0.0972,0.1015,0.1042,0.1081,0.1075,0.1123,0.1115,0.1118,0.115,0.1155,0.1157,0.1158,0.123,0.1239,0.1246,0,0,0,0,0,0,0.0765,0.08,0.0824,0.0848,0.0883,0.0925,0.0959,0.0997,0.1057,0.1072,0.1092,0.1098,0.1133,0.1131,0.1122,0.1168,0.1135,0.1137,0.1188,0.1196,0.1203,0.1208,0.1102,0,0,0,0,0,0.0768,0.0791,0.0826,0.0848,0.0874,0.0931,0.096,0.0985,0.1028,0.106,0.1092,0.1119,0.1137,0.1162,0.116,0.1203,0.1187,0.122,0.1227,0.1233,0.1238,0.1232,0.1238,0.1165,0.1165,0.1165,0,0,0.077,0.0789,0.0806,0.0847,0.0892,0.0927,0.0955,0.0997,0.1032,0.1049,0.1125,0.1137,0.1147,0.1182,0.12,0.1196,0.1249,0.1235,0.1241,0.1242,0.1234,0.1241,0.1248,0.1166,0.1166,0.1166,0,0,0.0768,0.081,0.0831,0.0863,0.0909,0.0939,0.096,0.1018,0.1062,0.1121,0.1132,0.1171,0.1219,0.1227,0.124,0.1285,0.127,0.1289,0.1351,0.1345,0.1351,0.1357,0.1362,0.1367,0.1311,0.1311,0.1311,0,0.0766,0.0804,0.0842,0.087,0.0906,0.0952,0.0991,0.1032,0.1092,0.112,0.1149,0.1219,0.1238,0.1274,0.1307,0.1301,0.1301,0.1325,0.1355,0.136,0.1364,0.1368,0.1372,0.1315,0.1315,0.1314,0.1314,0,0.0783,0.0822,0.0843,0.09,0.0941,0.0976,0.1027,0.1061,0.1127,0.1167,0.1226,0.1262,0.1316,0.1323,0.1351,0.1388,0.138,0.135,0.1338,0.1376,0.1378,0.1381,0.1321,0.1319,0.1318,0.1317,0,0,0.0744,0.0838,0.0844,0.0882,0.0963,0.0986,0.1043,0.11,0.115,0.1205,0.1282,0.1333,0.1378,0.1395,0.1418,0.1431,0.1485,0.1434,0.1431,0.1445,0.1492,0.1419,0.1415,0.1469,0.147,0.1471,0.1488,0,0.0752,0.0812,0.0858,0.092,0.097,0.1019,0.1082,0.1129,0.1198,0.1273,0.1309,0.1399,0.14,0.147,0.1477,0.1484,0.1496,0.1484,0.1447,0.1446,0.1381,0.1417,0.1473,0.1491,0.1491,0.1492,0.1492,0,0.0749,0.0798,0.0875,0.0956,0.0986,0.1032,0.1126,0.1195,0.1284,0.1335,0.1405,0.1464,0.1533,0.1529,0.1541,0.1542,0.1538,0.1519,0.1519,0.1423,0.1378,0.1439,0.1498,0.1497,0.1497,0.1496,0.1496,0,0.0707,0.0791,0.086,0.0893,0.1003,0.1045,0.1126,0.1227,0.1298,0.142,0.1483,0.1537,0.1626,0.1596,0.1594,0.1598,0.1569,0.156,0.1468,0.1463,0.149,0.1484,0.1547,0.1546,0.1546,0.1546,0.1546,0,0.0686,0.0719,0.0854,0.0884,0.0981,0.1075,0.1202,0.125,0.1376,0.1446,0.1561,0.1585,0.1656,0.1654,0.161,0.1545,0.1582,0.1485,0.1462,0.1524,0.1521,0.1493,0.1487,0.1547,0.1547,0.1547,0.1547,0,0.0609,0.0699,0.0761,0.0898,0.0969,0.1046,0.1251,0.1317,0.145,0.1542,0.1598,0.1672,0.1688,0.169,0.1659,0.1588,0.1509,0.1464,0.1541,0.1521,0.1415,0.1412,0.1407,0.1405,0.1403,0.1401,0.1399,0,0.0575,0.0616,0.0772,0.0848,0.092,0.1088,0.1202,0.1347,0.1374,0.1532,0.1503,0.1634,0.1663,0.155,0.1555,0.1488,0.1452,0.1426,0.1425,0.1422,0.14,0.1401,0.1401,0.1396,0.1395,0.1395,0.1394,0,0.0505,0.0564,0.062,0.0787,0.0906,0.1031,0.116,0.1173,0.131,0.1452,0.1422,0.1475,0.1497,0.148,0.1466,0.1382,0.1454,0.1404,0.1409,0.1408,0.1408,0.1389,0.1392,0.1387,0.1388,0.1389,0.1389,0,0.045,0.0465,0.0565,0.0697,0.0834,0.0889,0.1,0.104,0.111,0.1244,0.1218,0.1332,0.1446,0.1419,0.1344,0.1334,0.1334,0.1285,0.1296,0.1304,0.1263,0.1248,0.1164,0,0,0,0,0,0.041,0.0418,0.0498,0.0604,0.0721,0.0796,0.091,0.0994,0.1119,0.1069,0.1146,0.1154,0.1203,0.1222,0.1195,0.1288,0.1312,0.1249,0.1254,0.1347,0.1355,0.1317,0,0,0,0,0,0,0.0378,0.0421,0.0439,0.0488,0.0555,0.0649,0.0707,0.0801,0.075,0.0909,0.0914,0.1089,0.1108,0.1212,0.1175,0.119,0.117,0.133,0.1327,0.1342,0.135,0.1357,0.132,0,0,0,0,0]},{"header":{"parameterUnit":"m.s-1","parameterCategory":2,"la1":30.2991,"la2":30.254,"lo1":-89.0895,"lo2":-89.0444,"dy":0.0017,"dx":0.0017,"nx":28,"ny":28,"refTime":"2024-07-29T03:00:00:Z","depth":"4","parameterNumber":3,"parameterNumberName":"V-component_of_CURRENTS"},"data":[0,0,0,0,0,0,0,0,0,0,0,0,0,0,0,0,0,0,0,0,0,0,0,0,0,0,0,0,0,0,0,0,0,0,0,0,0,0,0,0,0,0,0,0,0,0,0,0,0,0,0,0,0,0,0,0,0,0,0.0074,0.0074,0,0.0025,0.0025,0.0024,0.0011,0.0012,0.0012,0.0012,-0.0048,-0.005,-0.0052,0,0,0,0,0,0,0,0,0,0,0,0,0,0.0115,0.0114,0.0074,0.0074,0.0073,0.0026,0.0025,0.0024,0.0011,0.0012,0.0012,0.0013,-0.0047,-0.005,-0.0052,0,0,0,0,0,0,0,0,0,0,0,0,0,0.0084,0.0114,0.0074,0.0061,0.006,0.0026,0.0025,0.0024,0.0011,0.0012,0.0012,0.0013,-0.0047,-0.0049,-0.0052,-0.0081,0,0,-0.0061,-0.0062,0,0,0,0,0,0,0,0,0.0086,0.0083,0.0064,0.0062,0.006,0.0026,0.0017,-0.0012,0.0011,0.0029,0.0012,0.0013,-0.0025,-0.0029,-0.004,-0.0084,-0.0086,-0.0061,-0.0063,-0.0064,-0.0065,0,0,0,0,0,0,0,0.0088,0.0084,0.0054,0.0063,0.0061,0.0044,0.004,0.0011,-0.0001,0.0028,0.0027,0.0022,-0.0026,-0.0037,-0.0042,-0.0087,-0.0061,-0.0064,-0.0066,-0.0067,-0.0174,-0.0175,0,0,0,0,0,0,0.0097,0.0087,0.0056,0.0053,0.0075,0.0043,0.0039,0.0036,-0.0,-0.0005,0.0022,0.0022,-0.0033,-0.0038,-0.0044,-0.008,-0.0064,-0.0067,-0.0069,-0.0173,-0.0174,-0.0175,0,0,0,0,0,0,0.0098,0.0095,0.0058,0.0069,0.0063,0.0042,0.0038,0.0035,0.0027,-0.0005,-0.0009,0.0019,-0.0032,-0.004,-0.0073,-0.0082,-0.0068,-0.0071,-0.0171,-0.0173,-0.0175,-0.0151,0,0,0,0,0,0,0.0099,0.0095,0.0096,0.007,0.0063,0.004,0.0038,0.0033,0.0024,0.0023,-0.0009,-0.0014,-0.0033,-0.0069,-0.0076,-0.0086,-0.0073,-0.017,-0.0172,-0.0174,-0.0151,-0.0152,-0.0153,0,0,0,0,0,0.0101,0.01,0.0096,0.0092,0.0065,0.004,0.0035,0.0021,0.0023,0.0017,-0.0007,-0.0013,-0.0087,-0.0072,-0.008,-0.0091,-0.0169,-0.0172,-0.0174,-0.015,-0.0152,-0.0153,0,0,0,0,0,0,0.0118,0.0097,0.0093,0.0087,0.0067,0.0038,0.0035,0.0023,-0.0001,-0.0001,-0.0026,-0.0033,-0.0072,-0.0087,-0.0069,-0.0131,-0.013,-0.0134,-0.0109,-0.0111,-0.0112,-0.0094,-0.0076,0,0,0,0,0,0.0122,0.0116,0.0093,0.0087,0.0082,0.0059,0.0049,0.0034,0.001,0.0001,-0.0024,-0.0055,-0.0091,-0.0102,-0.0141,-0.0166,-0.0183,-0.0181,-0.0182,-0.0183,-0.0176,-0.0219,-0.0223,-0.0183,-0.0183,-0.0183,0,0,0.013,0.0115,0.0114,0.009,0.0078,0.0069,0.0055,0.0037,0.0025,-0.0003,-0.0027,-0.0065,-0.0103,-0.014,-0.0157,-0.0148,-0.0204,-0.0186,-0.0186,-0.0179,-0.0222,-0.0225,-0.0229,-0.0185,-0.0185,-0.0184,0,0,0.0142,0.0129,0.0132,0.0114,0.0091,0.0074,0.0072,0.0041,0.0025,-0.0006,-0.0037,-0.0078,-0.0121,-0.0155,-0.0175,-0.0206,-0.0218,-0.0218,-0.0196,-0.0238,-0.0241,-0.0244,-0.0265,-0.027,-0.0207,-0.0207,-0.0207,0,0.0154,0.0154,0.0128,0.0122,0.0116,0.0081,0.0084,0.0055,0.0013,-0.0004,-0.001,-0.0095,-0.0129,-0.0174,-0.0185,-0.0207,-0.0223,-0.0183,-0.0237,-0.0241,-0.0244,-0.0265,-0.0271,-0.0206,-0.0206,-0.0206,-0.0206,0,0.0172,0.0167,0.0167,0.0153,0.0136,0.013,0.0092,0.0065,0.0043,0.0014,-0.004,-0.0094,-0.0132,-0.0162,-0.0179,-0.0224,-0.0225,-0.0241,-0.0226,-0.0246,-0.0267,-0.0274,-0.0205,-0.0205,-0.0205,-0.0206,0,0,0.0214,0.0191,0.0191,0.0188,0.0155,0.014,0.0113,0.0081,0.0071,0.0011,-0.0004,-0.0086,-0.0108,-0.0133,-0.0171,-0.0211,-0.0251,-0.0224,-0.0227,-0.0231,-0.0326,-0.0315,-0.0321,-0.0272,-0.0273,-0.0274,-0.0328,0,0.0244,0.0252,0.0225,0.0223,0.0227,0.0179,0.0167,0.0121,0.0082,0.0052,-0.002,-0.0046,-0.0097,-0.0101,-0.0157,-0.0233,-0.0267,-0.0234,-0.0318,-0.032,-0.0297,-0.0328,-0.0278,-0.0333,-0.0335,-0.0336,-0.0336,0,0.0274,0.0276,0.0298,0.027,0.0269,0.0265,0.0235,0.022,0.0158,0.0125,0.0071,0.0022,-0.0049,-0.0077,-0.0212,-0.0185,-0.0245,-0.0306,-0.031,-0.031,-0.0322,-0.0314,-0.0348,-0.0347,-0.0346,-0.0345,-0.0345,0,0.032,0.0314,0.034,0.0333,0.0308,0.0309,0.0305,0.0256,0.0249,0.0195,0.0182,0.0078,0.0052,-0.0063,-0.0194,-0.0193,-0.0339,-0.0353,-0.0403,-0.0402,-0.0402,-0.0399,-0.0436,-0.0436,-0.0436,-0.0435,-0.0435,0,0.0349,0.0353,0.0375,0.038,0.0419,0.0384,0.0419,0.0375,0.0349,0.0336,0.0253,0.0204,0.0055,-0.0052,-0.0175,-0.0312,-0.0324,-0.0402,-0.0421,-0.0392,-0.0387,-0.0406,-0.0402,-0.0437,-0.0437,-0.0437,-0.0436,0,0.036,0.0378,0.0398,0.0417,0.0442,0.047,0.0508,0.0516,0.0488,0.0467,0.0459,0.0313,0.0164,0.0007,-0.018,-0.0267,-0.0409,-0.0449,-0.0394,-0.0408,-0.0443,-0.0438,-0.0501,-0.0501,-0.0501,-0.0502,-0.0502,0,0.0354,0.0384,0.0447,0.0486,0.0499,0.0565,0.0612,0.0599,0.0581,0.0508,0.0469,0.0354,0.024,-0.001,-0.0184,-0.0395,-0.0425,-0.0469,-0.0472,-0.0441,-0.0453,-0.0447,-0.0441,-0.0502,-0.0502,-0.0502,-0.0502,0,0.0342,0.0383,0.0405,0.0509,0.057,0.0631,0.0669,0.0669,0.0631,0.0627,0.0484,0.0355,0.0191,-0.0019,-0.0165,-0.0331,-0.0431,-0.0472,-0.0472,-0.0475,-0.0443,-0.0453,-0.0447,-0.0503,-0.0503,-0.0503,-0.0503,0,0.0338,0.0358,0.042,0.0496,0.0584,0.0622,0.0666,0.0639,0.0635,0.0541,0.0495,0.0323,0.0232,0.0012,-0.0152,-0.0285,-0.0319,-0.0346,-0.0353,-0.0355,-0.0302,-0.0239,-0.0254,0,0,0,0,0,0.0329,0.0343,0.0404,0.0469,0.0555,0.0592,0.0649,0.0671,0.066,0.0573,0.0532,0.0372,0.0144,0.0025,-0.0107,-0.0171,-0.0353,-0.0328,-0.0389,-0.0506,-0.0505,-0.0469,0,0,0,0,0,0,0.0315,0.0357,0.0376,0.0428,0.047,0.054,0.0571,0.0572,0.0509,0.0495,0.0367,0.0347,0.011,0.0212,-0.0114,-0.0155,-0.0207,-0.0427,-0.0429,-0.0506,-0.0506,-0.0505,-0.0468,0,0,0,0,0]}]]